| time (UTC) | temp C | wind direction | speed KPH | gust KPH | rain 1hr cm | rain 24hr cm | rain mn cm | humidity % | barometer mb |
| 20260505181647 | 26 | 186 | 14.5 | 24.1 | 0.00 | 0.00 | 0.00 | 67 | 1012.9 |
| 20260505181149 | 26 | 154 | 16.1 | 24.1 | 0.00 | 0.00 | 0.00 | 66 | 1012.9 |
| 20260505180648 | 27 | 160 | 14.5 | 17.7 | 0.00 | 0.00 | 0.00 | 66 | 1012.5 |
| 20260505180147 | 26 | 166 | 16.1 | 22.5 | 0.00 | 0.00 | 0.00 | 68 | 1012.9 |
| 20260505175648 | 26 | 181 | 19.3 | 24.1 | 0.00 | 0.00 | 0.00 | 67 | 1012.9 |
| 20260505175147 | 26 | 164 | 17.7 | 22.5 | 0.00 | 0.00 | 0.00 | 67 | 1012.9 |
| 20260505174647 | 26 | 152 | 16.1 | 27.4 | 0.00 | 0.00 | 0.00 | 68 | 1012.5 |
| 20260505174149 | 26 | 155 | 11.3 | 24.1 | 0.00 | 0.00 | 0.00 | 67 | 1012.9 |
| 20260505173647 | 26 | 161 | 17.7 | 24.1 | 0.00 | 0.00 | 0.00 | 68 | 1012.9 |
| 20260505173146 | 26 | 180 | 11.3 | 25.7 | 0.00 | 0.00 | 0.00 | 67 | 1012.9 |
| 20260505172647 | 26 | 176 | 14.5 | 25.7 | 0.00 | 0.00 | 0.00 | 68 | 1012.9 |
| 20260505172147 | 26 | 173 | 16.1 | 27.4 | 0.00 | 0.00 | 0.00 | 68 | 1012.9 |
| 20260505171647 | 26 | 172 | 16.1 | 25.7 | 0.00 | 0.00 | 0.00 | 67 | 1012.9 |
| 20260505171146 | 25 | 167 | 11.3 | 24.1 | 0.00 | 0.00 | 0.00 | 68 | 1012.9 |
| 20260505170647 | 25 | 161 | 14.5 | 27.4 | 0.00 | 0.00 | 0.00 | 67 | 1012.9 |
| 20260505170147 | 26 | 159 | 16.1 | 29.0 | 0.00 | 0.00 | 0.00 | 67 | 1012.9 |
| 20260505165651 | 25 | 182 | 8.0 | 24.1 | 0.00 | 0.00 | 0.00 | 69 | 1012.9 |
| 20260505165148 | 25 | 158 | 9.7 | 24.1 | 0.00 | 0.00 | 0.00 | 70 | 1012.9 |
| 20260505164646 | 25 | 144 | 24.1 | 25.7 | 0.00 | 0.00 | 0.00 | 69 | 1012.5 |
| 20260505164147 | 25 | 200 | 12.9 | 25.7 | 0.00 | 0.00 | 0.00 | 68 | 1012.9 |
| 20260505163647 | 25 | 170 | 14.5 | 25.7 | 0.00 | 0.00 | 0.00 | 69 | 1012.9 |
| 20260505163146 | 25 | 160 | 12.9 | 22.5 | 0.00 | 0.00 | 0.00 | 69 | 1012.9 |
| 20260505162647 | 25 | 177 | 11.3 | 25.7 | 0.00 | 0.00 | 0.00 | 69 | 1012.9 |
| 20260505162148 | 25 | 170 | 12.9 | 25.7 | 0.00 | 0.00 | 0.00 | 67 | 1012.9 |
| 20260505161647 | 25 | 161 | 14.5 | 20.9 | 0.00 | 0.00 | 0.00 | 69 | 1012.9 |
| 20260505161147 | 25 | 176 | 9.7 | 24.1 | 0.00 | 0.00 | 0.00 | 69 | 1012.9 |
| 20260505160648 | 25 | 161 | 9.7 | 25.7 | 0.00 | 0.00 | 0.00 | 68 | 1012.9 |
| 20260505160148 | 25 | 196 | 12.9 | 27.4 | 0.00 | 0.00 | 0.00 | 67 | 1012.5 |
| 20260505153147 | 25 | 151 | 16.1 | 24.1 | 0.00 | 0.00 | 0.00 | 69 | 1013.2 |
| 20260505152647 | 25 | 175 | 11.3 | 25.7 | 0.00 | 0.00 | 0.00 | 69 | 1013.2 |
| 20260505152146 | 24 | 174 | 14.5 | 25.7 | 0.00 | 0.00 | 0.00 | 70 | 1012.9 |
| 20260505151647 | 25 | 183 | 14.5 | 20.9 | 0.00 | 0.00 | 0.00 | 70 | 1013.2 |
| 20260505151147 | 25 | 174 | 6.4 | 19.3 | 0.00 | 0.00 | 0.00 | 72 | 1012.9 |
| 20260505150647 | 24 | 165 | 12.9 | 25.7 | 0.00 | 0.00 | 0.00 | 73 | 1012.9 |
| 20260505150146 | 23 | 147 | 17.7 | 20.9 | 0.00 | 0.00 | 0.00 | 73 | 1013.2 |
| 20260505140647 | 23 | 162 | 9.7 | 20.9 | 0.00 | 0.00 | 0.00 | 77 | 1013.2 |
| 20260505140147 | 23 | 166 | 17.7 | 20.9 | 0.00 | 0.00 | 0.00 | 77 | 1013.2 |
| 20260505130146 | 21 | 136 | 4.8 | 9.7 | 0.00 | 0.00 | 0.00 | 83 | 1012.5 |
| 20260505124649 | 20 | 132 | 8.0 | 11.3 | 0.00 | 0.00 | 0.00 | 84 | 1012.9 |
| 20260505124147 | 20 | 157 | 9.7 | 12.9 | 0.00 | 0.00 | 0.00 | 84 | 1012.2 |
| 20260505123647 | 20 | 160 | 8.0 | 14.5 | 0.00 | 0.00 | 0.00 | 84 | 1012.5 |
| 20260505123147 | 20 | 156 | 4.8 | 8.0 | 0.00 | 0.00 | 0.00 | 85 | 1012.2 |
| 20260505122647 | 20 | 156 | 8.0 | 11.3 | 0.00 | 0.00 | 0.00 | 85 | 1012.2 |
| 20260505122147 | 20 | 159 | 11.3 | 12.9 | 0.00 | 0.00 | 0.00 | 86 | 1012.2 |
| 20260505121646 | 20 | 154 | 4.8 | 9.7 | 0.00 | 0.00 | 0.00 | 86 | 1012.2 |
| 20260505121147 | 19 | 146 | 4.8 | 11.3 | 0.00 | 0.00 | 0.00 | 87 | 1012.2 |
| 20260505120646 | 19 | 151 | 4.8 | 11.3 | 0.00 | 0.00 | 0.00 | 87 | 1012.2 |
| 20260505120147 | 19 | 140 | 6.4 | 8.0 | 0.00 | 0.00 | 0.00 | 88 | 1012.2 |
| 20260505115646 | 18 | 142 | 6.4 | 8.0 | 0.00 | 0.00 | 0.00 | 88 | 1012.2 |
| 20260505115146 | 18 | 152 | 6.4 | 8.0 | 0.00 | 0.00 | 0.00 | 89 | 1012.2 |
| 20260505114647 | 18 | 150 | 3.2 | 8.0 | 0.00 | 0.00 | 0.00 | 89 | 1011.9 |
| 20260505114146 | 18 | 151 | 3.2 | 4.8 | 0.00 | 0.00 | 0.00 | 89 | 1012.2 |
| 20260505113647 | 18 | 153 | 4.8 | 6.4 | 0.00 | 0.00 | 0.00 | 89 | 1012.2 |
| 20260505113146 | 18 | 151 | 3.2 | 8.0 | 0.00 | 0.00 | 0.00 | 89 | 1012.2 |
| 20260505112647 | 18 | 137 | 4.8 | 9.7 | 0.00 | 0.00 | 0.00 | 89 | 1012.2 |
| 20260505112147 | 18 | 139 | 4.8 | 9.7 | 0.00 | 0.00 | 0.00 | 89 | 1012.2 |
| 20260505111646 | 18 | 133 | 6.4 | 8.0 | 0.00 | 0.00 | 0.00 | 89 | 1012.2 |
| 20260505111147 | 18 | 122 | 4.8 | 6.4 | 0.00 | 0.00 | 0.00 | 89 | 1011.9 |
| 20260505110652 | 18 | 149 | 4.8 | 8.0 | 0.00 | 0.00 | 0.00 | 88 | 1012.2 |
| 20260505110147 | 18 | 138 | 3.2 | 8.0 | 0.00 | 0.00 | 0.00 | 89 | 1012.2 |
| 20260505102146 | 18 | 135 | 4.8 | 6.4 | 0.00 | 0.00 | 0.00 | 88 | 1012.2 |
| 20260505101648 | 18 | 126 | 3.2 | 4.8 | 0.00 | 0.00 | 0.00 | 87 | 1012.2 |
| 20260505101146 | 18 | 146 | 4.8 | 6.4 | 0.00 | 0.00 | 0.00 | 87 | 1012.2 |
| 20260505100646 | 18 | 141 | 3.2 | 4.8 | 0.00 | 0.00 | 0.00 | 87 | 1012.2 |
| 20260505100146 | 18 | 124 | 1.6 | 3.2 | 0.00 | 0.00 | 0.00 | 87 | 1012.5 |
| 20260505095646 | 18 | 126 | 1.6 | 3.2 | 0.00 | 0.00 | 0.00 | 87 | 1012.5 |
| 20260505095146 | 18 | 96 | 0.0 | 3.2 | 0.00 | 0.00 | 0.00 | 86 | 1012.2 |
| 20260505094648 | 18 | 144 | 4.8 | 6.4 | 0.00 | 0.00 | 0.00 | 86 | 1012.2 |
| 20260505094147 | 18 | 129 | 0.0 | 3.2 | 0.00 | 0.00 | 0.00 | 86 | 1012.5 |
| 20260505093646 | 18 | 133 | 1.6 | 3.2 | 0.00 | 0.00 | 0.00 | 85 | 1012.2 |
| 20260505093146 | 18 | 124 | 3.2 | 6.4 | 0.00 | 0.00 | 0.00 | 85 | 1012.2 |
| 20260505092647 | 18 | 144 | 4.8 | 6.4 | 0.00 | 0.00 | 0.00 | 85 | 1011.9 |
| 20260505092146 | 18 | 138 | 3.2 | 8.0 | 0.00 | 0.00 | 0.00 | 85 | 1011.9 |
| 20260505091647 | 18 | 106 | 1.6 | 4.8 | 0.00 | 0.00 | 0.00 | 85 | 1012.2 |
| 20260505091147 | 18 | 134 | 3.2 | 6.4 | 0.00 | 0.00 | 0.00 | 84 | 1012.2 |
| 20260505090647 | 18 | 135 | 3.2 | 4.8 | 0.00 | 0.00 | 0.00 | 84 | 1011.9 |
| 20260505090148 | 18 | 73 | 1.6 | 4.8 | 0.00 | 0.00 | 0.00 | 84 | 1012.2 |
| 20260505085649 | 18 | 94 | 3.2 | 6.4 | 0.00 | 0.00 | 0.00 | 84 | 1012.2 |
| 20260505085147 | 18 | 138 | 3.2 | 6.4 | 0.00 | 0.00 | 0.00 | 84 | 1011.9 |
| 20260505084647 | 18 | 136 | 6.4 | 6.4 | 0.00 | 0.00 | 0.00 | 83 | 1012.2 |
| 20260505084146 | 18 | 129 | 4.8 | 6.4 | 0.00 | 0.00 | 0.00 | 83 | 1012.2 |
| 20260505083646 | 18 | 124 | 3.2 | 6.4 | 0.00 | 0.00 | 0.00 | 83 | 1012.2 |
| 20260505083146 | 18 | 137 | 4.8 | 6.4 | 0.00 | 0.00 | 0.00 | 83 | 1012.2 |
| 20260505082647 | 18 | 120 | 4.8 | 4.8 | 0.00 | 0.00 | 0.00 | 82 | 1011.9 |
| 20260505082147 | 18 | 121 | 1.6 | 4.8 | 0.00 | 0.00 | 0.00 | 82 | 1012.2 |
| 20260505081647 | 18 | 156 | 4.8 | 4.8 | 0.00 | 0.00 | 0.00 | 82 | 1012.2 |
| 20260505081147 | 18 | 146 | 1.6 | 4.8 | 0.00 | 0.00 | 0.00 | 82 | 1012.2 |
| 20260505080647 | 18 | 145 | 6.4 | 9.7 | 0.00 | 0.00 | 0.00 | 82 | 1012.2 |
| 20260505080149 | 18 | 144 | 4.8 | 8.0 | 0.00 | 0.00 | 0.00 | 81 | 1012.2 |
| 20260505075647 | 18 | 138 | 4.8 | 6.4 | 0.00 | 0.00 | 0.00 | 81 | 1012.2 |
| 20260505075148 | 18 | 125 | 4.8 | 8.0 | 0.00 | 0.00 | 0.00 | 81 | 1012.2 |
| 20260505074647 | 18 | 110 | 1.6 | 6.4 | 0.00 | 0.00 | 0.00 | 81 | 1012.5 |
| 20260505074147 | 18 | 69 | 0.0 | 3.2 | 0.00 | 0.00 | 0.00 | 81 | 1012.5 |
| 20260505073647 | 18 | 112 | 3.2 | 8.0 | 0.00 | 0.00 | 0.00 | 81 | 1012.5 |
| 20260505073147 | 18 | 134 | 3.2 | 4.8 | 0.00 | 0.00 | 0.00 | 81 | 1012.5 |
| 20260505072647 | 18 | 129 | 3.2 | 4.8 | 0.00 | 0.00 | 0.00 | 81 | 1012.5 |
| 20260505072146 | 18 | 139 | 4.8 | 4.8 | 0.00 | 0.00 | 0.00 | 81 | 1012.5 |
| 20260505071647 | 18 | 112 | 0.0 | 4.8 | 0.00 | 0.00 | 0.00 | 80 | 1012.5 |
| 20260505071147 | 18 | 120 | 3.2 | 4.8 | 0.00 | 0.00 | 0.00 | 80 | 1012.5 |
| 20260505070647 | 18 | 154 | 0.0 | 3.2 | 0.00 | 0.00 | 0.00 | 80 | 1012.5 |
| 20260505070148 | 18 | 118 | 0.0 | 4.8 | 0.00 | 0.00 | 0.00 | 79 | 1012.5 |
| 20260505065649 | 18 | 140 | 3.2 | 4.8 | 0.00 | 0.00 | 0.00 | 80 | 1012.9 |
| 20260505065147 | 18 | 88 | 0.0 | 3.2 | 0.00 | 0.00 | 0.00 | 79 | 1012.9 |
| 20260505064647 | 18 | 129 | 1.6 | 3.2 | 0.00 | 0.00 | 0.00 | 79 | 1012.9 |
| 20260505064147 | 18 | 146 | 3.2 | 4.8 | 0.00 | 0.00 | 0.00 | 79 | 1013.2 |
| 20260505063646 | 18 | 128 | 4.8 | 4.8 | 0.00 | 0.00 | 0.00 | 79 | 1013.2 |
| 20260505063147 | 18 | 136 | 3.2 | 4.8 | 0.00 | 0.00 | 0.00 | 79 | 1013.2 |
| 20260505062646 | 18 | 104 | 0.0 | 1.6 | 0.00 | 0.00 | 0.00 | 79 | 1013.5 |
| 20260505062149 | 18 | 168 | 1.6 | 3.2 | 0.00 | 0.00 | 0.00 | 78 | 1013.2 |
| 20260505061646 | 18 | 138 | 0.0 | 1.6 | 0.00 | 0.00 | 0.00 | 77 | 1013.5 |
| 20260505061146 | 18 | 129 | 0.0 | 1.6 | 0.00 | 0.00 | 0.00 | 76 | 1013.5 |
| 20260505060647 | 18 | 119 | 1.6 | 3.2 | 0.00 | 0.00 | 0.00 | 77 | 1013.5 |
| 20260505060147 | 18 | 124 | 0.0 | 1.6 | 0.00 | 0.00 | 0.00 | 76 | 1013.5 |
| 20260505055647 | 18 | 116 | 1.6 | 3.2 | 0.00 | 0.00 | 0.00 | 76 | 1013.5 |
| 20260505055146 | 18 | 104 | 0.0 | 3.2 | 0.00 | 0.00 | 0.00 | 76 | 1013.5 |
| 20260505054647 | 18 | 139 | 0.0 | 3.2 | 0.00 | 0.00 | 0.00 | 76 | 1013.5 |
| 20260505054147 | 18 | 136 | 3.2 | 4.8 | 0.00 | 0.00 | 0.00 | 76 | 1013.5 |
| 20260505053646 | 18 | 133 | 1.6 | 3.2 | 0.00 | 0.00 | 0.00 | 75 | 1013.5 |
| 20260505053147 | 18 | 139 | 3.2 | 4.8 | 0.00 | 0.00 | 0.00 | 75 | 1013.5 |
| 20260505052646 | 18 | 131 | 3.2 | 4.8 | 0.00 | 0.00 | 0.00 | 76 | 1013.2 |
| 20260505052146 | 18 | 116 | 1.6 | 4.8 | 0.00 | 0.00 | 0.00 | 75 | 1013.2 |
| 20260505051648 | 18 | 101 | 1.6 | 4.8 | 0.00 | 0.00 | 0.00 | 75 | 1013.2 |
| 20260505051148 | 18 | 108 | 0.0 | 3.2 | 0.00 | 0.00 | 0.00 | 74 | 1013.5 |
| 20260505050646 | 18 | 130 | 4.8 | 6.4 | 0.00 | 0.00 | 0.00 | 75 | 1013.2 |
| 20260505050148 | 18 | 85 | 4.8 | 6.4 | 0.00 | 0.00 | 0.00 | 74 | 1013.2 |
| 20260505041646 | 19 | 148 | 3.2 | 4.8 | 0.00 | 0.00 | 0.00 | 70 | 1013.9 |
| 20260505041147 | 19 | 141 | 4.8 | 6.4 | 0.00 | 0.00 | 0.00 | 70 | 1013.9 |
| 20260505040647 | 19 | 135 | 4.8 | 6.4 | 0.00 | 0.00 | 0.00 | 70 | 1013.9 |
| 20260505040146 | 19 | 150 | 3.2 | 6.4 | 0.00 | 0.00 | 0.00 | 69 | 1013.9 |
| 20260505035647 | 19 | 147 | 4.8 | 4.8 | 0.00 | 0.00 | 0.00 | 69 | 1013.9 |
| 20260505035147 | 20 | 155 | 3.2 | 6.4 | 0.00 | 0.00 | 0.00 | 69 | 1014.2 |
| 20260505034647 | 20 | 152 | 3.2 | 6.4 | 0.00 | 0.00 | 0.00 | 68 | 1013.9 |
| 20260505034148 | 20 | 157 | 1.6 | 8.0 | 0.00 | 0.00 | 0.00 | 68 | 1013.5 |
| 20260505033646 | 20 | 144 | 4.8 | 8.0 | 0.00 | 0.00 | 0.00 | 68 | 1013.5 |
| 20260505033148 | 20 | 163 | 6.4 | 8.0 | 0.00 | 0.00 | 0.00 | 68 | 1013.9 |
| 20260505032647 | 20 | 162 | 6.4 | 11.3 | 0.00 | 0.00 | 0.00 | 67 | 1013.9 |
| 20260505032149 | 20 | 127 | 9.7 | 12.9 | 0.00 | 0.00 | 0.00 | 67 | 1013.5 |
| 20260505031646 | 20 | 142 | 8.0 | 11.3 | 0.00 | 0.00 | 0.00 | 67 | 1013.9 |
| 20260505031147 | 20 | 151 | 6.4 | 11.3 | 0.00 | 0.00 | 0.00 | 67 | 1013.5 |
| 20260505030648 | 20 | 168 | 4.8 | 9.7 | 0.00 | 0.00 | 0.00 | 67 | 1013.9 |
| 20260505030148 | 20 | 166 | 4.8 | 12.9 | 0.00 | 0.00 | 0.00 | 66 | 1013.5 |
| 20260505025649 | 20 | 143 | 6.4 | 14.5 | 0.00 | 0.00 | 0.00 | 66 | 1013.9 |
| 20260505025148 | 20 | 147 | 8.0 | 12.9 | 0.00 | 0.00 | 0.00 | 66 | 1013.9 |
| 20260505024648 | 20 | 170 | 4.8 | 9.7 | 0.00 | 0.00 | 0.00 | 66 | 1013.9 |
| 20260505024149 | 20 | 128 | 9.7 | 12.9 | 0.00 | 0.00 | 0.00 | 65 | 1013.9 |
| 20260505023646 | 20 | 135 | 6.4 | 12.9 | 0.00 | 0.00 | 0.00 | 65 | 1013.9 |
| 20260505023148 | 20 | 147 | 3.2 | 12.9 | 0.00 | 0.00 | 0.00 | 65 | 1013.9 |
| 20260505022649 | 20 | 152 | 6.4 | 12.9 | 0.00 | 0.00 | 0.00 | 65 | 1013.9 |
| 20260505022147 | 20 | 149 | 9.7 | 14.5 | 0.00 | 0.00 | 0.00 | 65 | 1013.5 |
| 20260505021649 | 20 | 141 | 9.7 | 14.5 | 0.00 | 0.00 | 0.00 | 64 | 1013.9 |
| 20260505021149 | 20 | 145 | 4.8 | 11.3 | 0.00 | 0.00 | 0.00 | 64 | 1013.9 |
| 20260505020650 | 20 | 156 | 6.4 | 16.1 | 0.00 | 0.00 | 0.00 | 64 | 1013.5 |
| 20260505020146 | 20 | 162 | 8.0 | 11.3 | 0.00 | 0.00 | 0.00 | 65 | 1013.5 |
| 20260505015647 | 20 | 160 | 4.8 | 8.0 | 0.00 | 0.00 | 0.00 | 64 | 1013.5 |
| 20260505015146 | 20 | 145 | 4.8 | 11.3 | 0.00 | 0.00 | 0.00 | 63 | 1013.5 |
| 20260505014646 | 20 | 153 | 4.8 | 14.5 | 0.00 | 0.00 | 0.00 | 63 | 1013.5 |
| 20260505014146 | 20 | 150 | 6.4 | 9.7 | 0.00 | 0.00 | 0.00 | 62 | 1013.2 |
| 20260505013647 | 20 | 146 | 4.8 | 11.3 | 0.00 | 0.00 | 0.00 | 62 | 1013.5 |
| 20260505013147 | 20 | 136 | 4.8 | 11.3 | 0.00 | 0.00 | 0.00 | 62 | 1013.2 |
| 20260505012646 | 20 | 154 | 6.4 | 8.0 | 0.00 | 0.00 | 0.00 | 62 | 1013.5 |
| 20260505012146 | 21 | 163 | 4.8 | 6.4 | 0.00 | 0.00 | 0.00 | 61 | 1013.5 |
| 20260505011648 | 21 | 164 | 8.0 | 9.7 | 0.00 | 0.00 | 0.00 | 61 | 1013.5 |
| 20260505011147 | 21 | 158 | 8.0 | 9.7 | 0.00 | 0.00 | 0.00 | 61 | 1013.5 |
| 20260505010647 | 21 | 166 | 8.0 | 9.7 | 0.00 | 0.00 | 0.00 | 60 | 1013.5 |
| 20260505010148 | 21 | 140 | 8.0 | 12.9 | 0.00 | 0.00 | 0.00 | 59 | 1013.5 |
| 20260505005648 | 21 | 156 | 8.0 | 11.3 | 0.00 | 0.00 | 0.00 | 59 | 1013.5 |
| 20260505005148 | 21 | 158 | 4.8 | 9.7 | 0.00 | 0.00 | 0.00 | 58 | 1013.5 |
| 20260505004650 | 21 | 142 | 4.8 | 9.7 | 0.00 | 0.00 | 0.00 | 58 | 1013.5 |
| 20260505004146 | 21 | 149 | 9.7 | 11.3 | 0.00 | 0.00 | 0.00 | 58 | 1013.5 |
| 20260505003648 | 21 | 166 | 9.7 | 12.9 | 0.00 | 0.00 | 0.00 | 57 | 1013.5 |
| 20260505003147 | 21 | 138 | 6.4 | 12.9 | 0.00 | 0.00 | 0.00 | 57 | 1013.5 |
| 20260505002646 | 21 | 161 | 9.7 | 12.9 | 0.00 | 0.00 | 0.00 | 57 | 1013.5 |
| 20260505002146 | 22 | 159 | 4.8 | 12.9 | 0.00 | 0.00 | 0.00 | 56 | 1013.5 |
| 20260505001646 | 22 | 159 | 6.4 | 12.9 | 0.00 | 0.00 | 0.00 | 54 | 1013.9 |
| 20260505001147 | 22 | 177 | 6.4 | 12.9 | 0.00 | 0.00 | 0.00 | 54 | 1013.9 |
| 20260505000646 | 22 | 164 | 11.3 | 14.5 | 0.00 | 0.00 | 0.00 | 54 | 1013.5 |
| 20260505000153 | 22 | 153 | 8.0 | 12.9 | 0.00 | 0.00 | 0.00 | 53 | 1013.5 |
| 20260504235646 | 22 | 159 | 6.4 | 12.9 | 0.00 | 0.00 | 0.00 | 52 | 1013.5 |
| 20260504235146 | 22 | 153 | 9.7 | 17.7 | 0.00 | 0.00 | 0.00 | 52 | 1013.5 |
| 20260504234647 | 22 | 149 | 9.7 | 16.1 | 0.00 | 0.00 | 0.00 | 51 | 1013.5 |
| 20260504234146 | 22 | 170 | 11.3 | 16.1 | 0.00 | 0.00 | 0.00 | 51 | 1013.9 |
| 20260504233647 | 22 | 182 | 11.3 | 17.7 | 0.00 | 0.00 | 0.00 | 51 | 1013.9 |
| 20260504233148 | 22 | 127 | 9.7 | 16.1 | 0.00 | 0.00 | 0.00 | 52 | 1013.9 |
| 20260504232646 | 22 | 161 | 12.9 | 16.1 | 0.00 | 0.00 | 0.00 | 50 | 1013.9 |
| 20260504232146 | 23 | 173 | 12.9 | 17.7 | 0.00 | 0.00 | 0.00 | 49 | 1013.9 |
| 20260504231157 | 23 | 172 | 11.3 | 16.1 | 0.00 | 0.00 | 0.00 | 49 | 1014.2 |
| 20260504230646 | 23 | 165 | 12.9 | 22.5 | 0.00 | 0.00 | 0.00 | 48 | 1014.2 |
| 20260504230147 | 23 | 195 | 14.5 | 22.5 | 0.00 | 0.00 | 0.00 | 48 | 1014.2 |
| 20260504225647 | 23 | 186 | 12.9 | 17.7 | 0.00 | 0.00 | 0.00 | 48 | 1014.2 |
| 20260504225147 | 23 | 173 | 16.1 | 17.7 | 0.00 | 0.00 | 0.00 | 47 | 1014.2 |
| 20260504224646 | 23 | 163 | 9.7 | 19.3 | 0.00 | 0.00 | 0.00 | 47 | 1014.2 |
| 20260504224147 | 23 | 150 | 9.7 | 20.9 | 0.00 | 0.00 | 0.00 | 46 | 1014.2 |
| 20260504223646 | 23 | 164 | 6.4 | 17.7 | 0.00 | 0.00 | 0.00 | 46 | 1014.2 |
| 20260504223146 | 23 | 153 | 14.5 | 20.9 | 0.00 | 0.00 | 0.00 | 45 | 1014.2 |
| 20260504222647 | 23 | 130 | 4.8 | 11.3 | 0.00 | 0.00 | 0.00 | 45 | 1014.2 |
| 20260504222146 | 23 | 165 | 16.1 | 20.9 | 0.00 | 0.00 | 0.00 | 45 | 1014.2 |
| 20260504221646 | 23 | 172 | 14.5 | 19.3 | 0.00 | 0.00 | 0.00 | 45 | 1014.2 |
| 20260504221147 | 23 | 174 | 12.9 | 17.7 | 0.00 | 0.00 | 0.00 | 44 | 1014.6 |
| 20260504220646 | 23 | 169 | 11.3 | 17.7 | 0.00 | 0.00 | 0.00 | 43 | 1014.6 |
| 20260504220147 | 23 | 164 | 12.9 | 17.7 | 0.00 | 0.00 | 0.00 | 44 | 1014.6 |
| 20260504215646 | 23 | 186 | 8.0 | 20.9 | 0.00 | 0.00 | 0.00 | 43 | 1014.6 |
| 20260504215146 | 24 | 180 | 11.3 | 14.5 | 0.00 | 0.00 | 0.00 | 43 | 1014.6 |
| 20260504214646 | 23 | 149 | 12.9 | 20.9 | 0.00 | 0.00 | 0.00 | 43 | 1014.2 |
| 20260504214147 | 23 | 179 | 14.5 | 19.3 | 0.00 | 0.00 | 0.00 | 44 | 1014.2 |
| 20260504213646 | 23 | 165 | 9.7 | 20.9 | 0.00 | 0.00 | 0.00 | 44 | 1014.2 |
| 20260504213146 | 23 | 169 | 17.7 | 20.9 | 0.00 | 0.00 | 0.00 | 44 | 1014.6 |
| 20260504212647 | 23 | 143 | 14.5 | 19.3 | 0.00 | 0.00 | 0.00 | 44 | 1014.6 |
| 20260504212147 | 23 | 168 | 17.7 | 20.9 | 0.00 | 0.00 | 0.00 | 44 | 1014.6 |
| 20260504211647 | 23 | 207 | 12.9 | 16.1 | 0.00 | 0.00 | 0.00 | 43 | 1014.9 |
| 20260504211147 | 23 | 180 | 11.3 | 16.1 | 0.00 | 0.00 | 0.00 | 43 | 1014.9 |
| 20260504210648 | 23 | 195 | 12.9 | 20.9 | 0.00 | 0.00 | 0.00 | 42 | 1014.6 |
| 20260504210147 | 23 | 154 | 17.7 | 19.3 | 0.00 | 0.00 | 0.00 | 42 | 1014.6 |
| 20260504205647 | 24 | 160 | 16.1 | 20.9 | 0.00 | 0.00 | 0.00 | 41 | 1014.9 |
| 20260504205150 | 23 | 180 | 19.3 | 22.5 | 0.00 | 0.00 | 0.00 | 40 | 1014.9 |
| 20260504204647 | 23 | 159 | 11.3 | 20.9 | 0.00 | 0.00 | 0.00 | 40 | 1014.9 |
| 20260504204147 | 23 | 181 | 12.9 | 17.7 | 0.00 | 0.00 | 0.00 | 41 | 1015.2 |
| 20260504203646 | 23 | 164 | 20.9 | 22.5 | 0.00 | 0.00 | 0.00 | 40 | 1015.2 |
| 20260504203146 | 23 | 180 | 14.5 | 22.5 | 0.00 | 0.00 | 0.00 | 40 | 1015.2 |
| 20260504202650 | 24 | 155 | 11.3 | 24.1 | 0.00 | 0.00 | 0.00 | 38 | 1015.2 |
| 20260504202146 | 23 | 120 | 6.4 | 12.9 | 0.00 | 0.00 | 0.00 | 40 | 1015.2 |
| 20260504201647 | 24 | 169 | 11.3 | 19.3 | 0.00 | 0.00 | 0.00 | 38 | 1015.6 |
| 20260504201146 | 24 | 176 | 6.4 | 20.9 | 0.00 | 0.00 | 0.00 | 38 | 1015.6 |
| 20260504200647 | 23 | 246 | 12.9 | 19.3 | 0.00 | 0.00 | 0.00 | 39 | 1015.6 |
| 20260504200146 | 24 | 178 | 11.3 | 17.7 | 0.00 | 0.00 | 0.00 | 39 | 1015.9 |
| 20260504195646 | 25 | 180 | 14.5 | 22.5 | 0.00 | 0.00 | 0.00 | 39 | 1015.6 |
| 20260504195147 | 23 | 42 | 8.0 | 22.5 | 0.00 | 0.00 | 0.00 | 39 | 1015.9 |
| 20260504194646 | 24 | 240 | 8.0 | 24.1 | 0.00 | 0.00 | 0.00 | 37 | 1015.9 |
| 20260504194146 | 24 | 202 | 9.7 | 20.9 | 0.00 | 0.00 | 0.00 | 38 | 1015.9 |
| 20260504193646 | 23 | 185 | 6.4 | 19.3 | 0.00 | 0.00 | 0.00 | 38 | 1016.3 |
| 20260504193147 | 24 | 186 | 8.0 | 17.7 | 0.00 | 0.00 | 0.00 | 40 | 1015.9 |
| 20260504192647 | 24 | 175 | 14.5 | 19.3 | 0.00 | 0.00 | 0.00 | 39 | 1015.9 |
| 20260504192146 | 24 | 194 | 19.3 | 20.9 | 0.00 | 0.00 | 0.00 | 39 | 1015.9 |
| 20260504191648 | 23 | 159 | 16.1 | 25.7 | 0.00 | 0.00 | 0.00 | 40 | 1016.3 |
| 20260504191146 | 23 | 193 | 12.9 | 20.9 | 0.00 | 0.00 | 0.00 | 40 | 1015.9 |
| 20260504190647 | 23 | 169 | 14.5 | 22.5 | 0.00 | 0.00 | 0.00 | 40 | 1016.3 |
| 20260504190149 | 24 | 170 | 16.1 | 27.4 | 0.00 | 0.00 | 0.00 | 40 | 1016.6 |
| 20260504185646 | 23 | 171 | 8.0 | 17.7 | 0.00 | 0.00 | 0.00 | 40 | 1016.6 |
| 20260504185147 | 23 | 183 | 20.9 | 27.4 | 0.00 | 0.00 | 0.00 | 40 | 1016.6 |
| 20260504184646 | 23 | 171 | 11.3 | 20.9 | 0.00 | 0.00 | 0.00 | 40 | 1016.3 |
| 20260504184147 | 23 | 169 | 11.3 | 19.3 | 0.00 | 0.00 | 0.00 | 40 | 1016.9 |
| 20260504183647 | 23 | 183 | 9.7 | 19.3 | 0.00 | 0.00 | 0.00 | 41 | 1016.6 |
| 20260504183147 | 23 | 159 | 12.9 | 27.4 | 0.00 | 0.00 | 0.00 | 40 | 1016.9 |
| 20260504182647 | 23 | 205 | 9.7 | 19.3 | 0.00 | 0.00 | 0.00 | 42 | 1016.9 |
| 20260504182146 | 23 | 179 | 16.1 | 27.4 | 0.00 | 0.00 | 0.00 | 41 | 1016.9 |